15P/Finlay (2021)

Japanese version
Home page
Updated on May 4, 2021

---------------------------------------------------------------------

* Profile

* Orbital Elements

Epoch 2021 July 5.0 TT = JDT 2459400.5
T 2021 July 13.54135 TT                                 MPCW
q   0.9919961            (2000.0)            P               Q
n   0.15015520     Peri.  347.82129     +0.99928901     -0.02517963
a   3.5057084      Node    13.71492     +0.03585030     +0.86500746
e   0.7170341      Incl.    6.79737     -0.01167179     +0.50112681
P   6.56
From 423 observations 2002 Jan. 27-2015 Jan. 1, mean residual 0".8.
     Nongravitational parameters A1 = +0.47, A2 = +0.0060.

* Finding Charts

* Magnitudes Graph

        m1 =  9.5 + 5 log d + 30.0 log r(t - 20)  [   , 20]  (             - 2021 Aug.  2)
        m1 =  9.4 + 5 log d + 25.0 log r(t - 20)  [ 20,145]  (2021 Aug.  2 - 2021 Dec.  5)
        m1 = 13.2 + 5 log d + 10.0 log r          [145,   ]  (2021 Dec.  5 -             )

---------------------------------------------------------------------

The orbital elements are published on M.P.E.C. 2015-A10.
The charts are made with StellaNavigator Ver.10 (AstroArts).
The magnitudes graphs are made with Comet for Windows.

---------------------------------------------------------------------

Copyright(C) Seiichi Yoshida (comet@aerith.net). All rights reserved.